Retour au catalogue

SATCOM C4

ActifCommunicationsGEO
NORAD 22096·PAYLOAD·🇺🇸 United States

Lancé Aug 31, 1992 depuis Cape Canaveral Space Force Station

Loading…

TLE

FraisSource: Space-Track

Époque: Sep 14, 2026, 00:09 UTC

1 22096U 92057A   26257.00637543 -.00000038  00000-0  00000-0 0  9994
2 22096  13.8354  15.5455 0002818 239.3578 130.8017  0.99017910125796

Suivez SATCOM C4 en temps réel avec AllMySat

Download on the App Store